Weather in Bregenz

Austria     47°30′02″N   9°44′32″E
temp.,
°C
wind,
m/s
gust,
m/s
humid.,
%
clouds,
%
prec.,
mm/h
press.,
hPa
HPBL,
m
6 may, thu
thu623:00+4s3694100 0.4 1017220
02:00+3sse249799 0.5 1016157
05:00+3s2391100 0.0 101581
08:00+5s2384100 0.0 1015145
11:00+9sw2356100 0.0 1012737
14:00+11nw2254100 0.0 10091096
17:00+7nw1192100 0.9 1009248
20:00+7s1197100 5.4 100969
7 may, fri
fri723:00+7ssw61491100 3.3 10111338
02:00+7s4895100 5.4 1010399
05:00+6ssw51193100 5.1 1011890
08:00+6ssw2695100 7.4 1013615
11:00+4wnw3598100 6.7 1016689
14:00+4sw2497100 13.6 1018547
17:00+5ssw2497100 1.4 1019540
20:00+5sse129328 1.9 1021106
8 may, sat
sat823:00+2se22936 0.0 102248
02:00+1sse229383 0.0 102250
05:00+3se1191100 0.0 102240
08:00+5sse128960 0.0 1022123
11:00+13w12529 0.0 1019851
14:00+15nw234772 0.0 10171152
17:00+15nw115065 0.0 1016601
20:00+12ese217644 0.0 101511
9 may, sun
sun923:00+8se338157 0.0 101645
02:00+7sse33755 0.0 101650
05:00+7sse337083 0.0 101451
08:00+12sse23635 0.0 1012115
11:00+20sw234438 0.0 1010615
14:00+23nw123956 0.0 10081198
17:00+24wsw12418 0.0 10061423
20:00+18ssw227367 0.0 100738
10 may, mon
mon1023:00+12sse3578100 0.0 100993
02:00+11sse347495 0.0 100878
05:00+9s247743 0.0 100963
08:00+13se34685 0.0 1007147
11:00+19nw3355100 0.0 1006512
14:00+19wnw365698 0.0 1007949
17:00+17wnw3366100 0.0 1007590
20:00+14wnw118446 0.0 100925